To NAV CANADA Home Page Login to a new session Search on AWWS site Feedback and Comments Disclaimer Vers la page française équivalente Tips FAQ What's new on the site To the Forecasts and Observations / NOTAM section To "File a Flight Plan" website Publications and other links Update of the User's profile FIC Telephone Numbers My Weather Data Folder Route Weather Data Regional Weather Data Local Weather Data To the Forecasts and Observations / NOTAM section
Request Generated 05/25/2017 at 01:06:23 UTC . Weather information available at that time is displayed.

METAR/TAF

SANIKILUAQ/NU    

LWIS CYSK 250100Z AUTO 10003KT 02/M05 A2996=
LWIS CYSK 250000Z AUTO 09006KT 03/M02 A2995=
LWIS CYSK 242300Z AUTO 07005KT 03/M06 A2995=

CYSK - No TAF is issued for this station

Your time UTC time
Weather data provided by Environment Canada and NAV CANADA